Location: Ladrillo (historical)
(32.8195°N, 117.2231°W)
Time: 00:29:38
(UTC+00:00)

Courier 1B - Pass Details

Date: 07 March 2021
Orbit: 963 x 1209 km, 28.3° (Epoch: 15 April)

Event Time Altitude Azimuth Distance (km) Brightness Sun altitude
Rises 16:03:43 0° 262° (W) 3,660 10.0 22.5°
Reaches altitude 10° 16:06:25 10° 259° (W) 2,698 9.4 23.1°
Maximum altitude 16:12:45 59° 181° (S) 1,094 8.4 24.3°
Drops below altitude 10° 16:19:08 10° 103° (ESE) 2,708 11.5 25.5°
Sets 16:21:51 0° 100° (E) 3,675 11.7 26.0°
